Regional Weather Roundup
Issued by NWS

Home | Current Version | Previous Version | Text Only | Print | Product List | Glossary Off
Versions: 1 2 3 4 5 6 7 8 9 10 11 12 13 14 15 16 17 18 19 20 21 22 23 24 25 26 27 28 29 30 31 32 33 34 35 36 37 38 39 40 41 42 43 44 45 46 47 48 49 50

000
ASUS43 KDTX 271610
RWRMI
MICHIGAN HOURLY REGIONAL WEATHER ROUNDUP
NATIONAL WEATHER SERVICE DETROIT/PONTIAC MI
1100 AM EST SAT DEC 27 2014

NOTE: "FAIR" INDICATES FEW OR NO CLOUDS BELOW 12,000 FEET WITH NO
SIGNIFICANT WEATHER AND/OR OBSTRUCTION TO VISIBILITY.

MIZ047>049-052>055-059>063-066>070-074>076-081>083-271700-
SOUTHEAST LOWER MICHIGAN

CITY           SKY/WX    TMP DP  RH WIND       PRES   REMARKS
ADRIAN         CLOUDY    43  42  97 SW14      30.07F
ALMA           CLOUDY    45  43  93 S13G20    29.94F
ANN ARBOR      CLOUDY    43  42  97 S13       30.04F FOG
BAD AXE        CLOUDY    44  43  97 S12       29.97F
DETROIT CITY   CLOUDY    47  40  76 SW16G24   30.06F
DETROIT        CLOUDY    44  42  93 S16       30.06F FOG
FLINT          CLOUDY    48  42  80 S14       30.00F
GROSSE ILE     CLOUDY    41  37  87 S9        30.06F
HILLSDALE      CLOUDY    44  44 100 S12G17    30.03F FOG
HOWELL         CLOUDY    44  43  95 S12G17    30.00F

CITY           SKY/WX    TMP DP  RH WIND       PRES   REMARKS
JACKSON        CLOUDY    45  43  93 S13       30.00F FOG
LAMBERTVILLE   CLOUDY    45  41  87 S13       30.09F FOG
LANSING        CLOUDY    46  42  86 S16G23    29.98F
LAPEER         NOT AVBL
MASON          CLOUDY    44  42  91 S8        29.99F
MONROE         CLOUDY    45  43  93 S13       30.05F FOG
MT. CLEMENS    CLOUDY    45  43  93 S13       30.03F
PONTIAC        CLOUDY    44  42  93 S13G21    30.01F
PORT HOPE        N/A     45  40  82 S3        29.96F
PORT HURON     DRIZZLE   43  43 100 S14G22    30.04F
TRI CITIES     CLOUDY    48  42  80 S14G22    29.94F
YPSILANTI      CLOUDY    47  42  83 S14       30.05F
$$
MIZ043>046-050>051-056>058-064>065-071>073-077>080-271700-
SOUTHWEST LOWER MICHIGAN

CITY           SKY/WX    TMP DP  RH WIND       PRES   REMARKS
BATTLE CREEK   CLOUDY    46  43  89 S18       30.00F FOG
BENTON HARBOR  CLOUDY    45  45 100 S13       29.97F FOG
BIG RAPIDS     LGT RAIN  44  44 100 S10G20    29.87F
COLDWATER      CLOUDY    44  44  98 S14       30.02F FOG
HOLLAND        CLOUDY    48  44  86 S17G26    29.94F
GRAND RAPIDS   CLOUDY    45  43  93 S16G26    29.96S FOG
KALAMAZOO      CLOUDY    46  43  89 SW16      30.00S FOG
MARSHALL       CLOUDY    44  43  97 S10G18    30.00F FOG
MUSKEGON       FOG       44  43  96 S20G31    29.90F VSB 1/2
$$
MIZ016>042-271700-
NORTHERN LOWER MICHIGAN

CITY           SKY/WX    TMP DP  RH WIND       PRES   REMARKS
ALPENA         CLOUDY    39  38  96 SE9       29.88F FOG
BEAVER ISLAND  LGT RAIN  36  36 100 E5        29.80F
BELLAIRE       CLOUDY    42  40  93 S8        29.81F FOG
CADILLAC       CLOUDY    42  41  98 S13       29.82F FOG
CHARLEVOIX     LGT RAIN  38  38 100 E5        29.82F VSB 1
FRANKFORT      DRIZZLE   45  44  96 S10G25    29.79F
GAYLORD        FOG       38  38 100 S13       29.82F VSB 1/4
GRAYLING       FOG       39  39 100 S7        29.85F VSB 3/4
HARBOR SPRINGS HVY RAIN  37  36  97 E6        29.80F
HOUGHTON LAKE  FOG       40  39  97 S10       29.86F VSB 3/4
MANISTEE       CLOUDY    45  43  93 S12       29.82F
OSCODA         CLOUDY    43  40  90 S10G18    29.93F
PELLSTON       LGT RAIN  37  36  96 SE6       29.81F FOG
TRAVERSE CITY  CLOUDY    46  43  89 VRB7      29.78F
$$
MIZ007>008-015-271700-
EASTERN UPPER MICHIGAN

CITY           SKY/WX    TMP DP  RH WIND       PRES   REMARKS
KINROSS        CLOUDY    36  36 100 SE8       29.82F
MACKINAC ISLAN LGT SNOW  37  37 100 SE6       29.81F
NEWBERRY       LGT SNOW  31  31 100 N5        29.82F VSB 3/4
S. S. MARIE    LGT RAIN  34  34 100 E5        29.83F VSB 1/4
$$
MIZ004>006-011>014-085-271700-
CENTRAL UPPER MICHIGAN

CITY           SKY/WX    TMP DP  RH WIND       PRES   REMARKS
MANISTIQUE     LGT SNOW  32  32 100 N9        29.80F
ESCANABA       CLOUDY    32  30  93 N7        29.81F VSB 3/4
MENOMINEE      CLOUDY    34  30  86 N7        29.79F
SAWYER-GWINN   LGT SNOW  32  30  93 NE9       29.82F VSB 3/4
$$
MIZ001>003-009>011-084-271700-
WESTERN UPPER MICHIGAN

CITY           SKY/WX    TMP DP  RH WIND       PRES   REMARKS
IRON MOUNTAIN  HVY SNOW  31  29  92 N6        29.81S VSB 1/4
HOUGHTON       LGT SNOW  28  24  85 N9        29.90S FOG
COPPER HARBOR    N/A     30  27  88 E14       29.91F
IRONWOOD       CLOUDY    28  27  93 N8        29.90S VSB 1/2
$$

ABBREVIATIONS USED IN REMARKS
   TC - TEMPERATURE IN CELSIUS
  WCI - WIND CHILL INDEX
   HX - HEAT INDEX
  VSB - VISIBILITY



USA.gov is the U.S. government's official web portal to all federal, state and local government web resources and services.